This is the latest recevied weather packets stored in our database for station/object KC4GS-13. If no packets are shown the sender has not sent any weather packets the latest 10 day(s).
| Time | Temp. | Humidity | Pressure | Rain* | Wind** | Luminosity | Snow |
|---|---|---|---|---|---|---|---|
| 1787526053 | 33.89° C | 46% | 1014.1 hPa | 0 mm | - | 47 W/m² | - |
| 1787525749 | 34.44° C | 45% | 1014.2 hPa | 0 mm | - | 51 W/m² | - |
| 1787525443 | 34.44° C | 45% | 1014 hPa | 0 mm | - | 57 W/m² | - |
| 1787525138 | 34.44° C | 44% | 1013.9 hPa | 0 mm | - | 60 W/m² | - |
| 1787524833 | 35° C | 44% | 1013.9 hPa | 0 mm | - | 61 W/m² | - |
| 1787524530 | 35° C | 45% | 1014.3 hPa | 0 mm | - | 65 W/m² | - |
| 1787524223 | 35.56° C | 43% | 1014 hPa | 0 mm | - | 66 W/m² | - |
| 1787523919 | 35.56° C | 43% | 1013.9 hPa | 0 mm | - | 69 W/m² | - |
| 1787523614 | 36.11° C | 42% | 1014 hPa | 0 mm | - | 153 W/m² | - |
| 1787523308 | 36.67° C | 40% | 1014 hPa | 0 mm | - | 216 W/m² | - |
| 1787523004 | 36.11° C | 42% | 1013.8 hPa | 0 mm | - | 230 W/m² | - |
| 1787522699 | 36.67° C | 41% | 1013.8 hPa | 0 mm | - | 257 W/m² | - |
| 1787522394 | 36.11° C | 41% | 1013.8 hPa | 0 mm | - | 278 W/m² | - |
| 1787522089 | 36.67° C | 42% | 1013.8 hPa | 0 mm | - | 282 W/m² | - |
| 1787521789 | 36.67° C | 42% | 1013.8 hPa | 0 mm | - | 309 W/m² | - |
| 1787521488 | 36.67° C | 44% | 1013.9 hPa | 0 mm | - | 344 W/m² | - |
| 1787521183 | 36.67° C | 43% | 1013.9 hPa | 0 mm | - | 354 W/m² | - |
| 1787520878 | 36.67° C | 42% | 1013.9 hPa | 0 mm | - | 372 W/m² | - |
| 1787520574 | 36.67° C | 41% | 1013.8 hPa | 0 mm | - | 403 W/m² | - |
| 1787520270 | 36.67° C | 44% | 1013.9 hPa | 0 mm | - | 423 W/m² | - |
| 1787519965 | 36.67° C | 44% | 1013.8 hPa | 0 mm | - | 449 W/m² | - |
| 1787519661 | 36.67° C | 44% | 1014 hPa | 0 mm | - | 453 W/m² | - |
| 1787519361 | 37.22° C | 43% | 1014 hPa | 0 mm | - | 458 W/m² | - |
| 1787519056 | 36.67° C | 43% | 1013.8 hPa | 0 mm | - | 504 W/m² | - |
| 1787518750 | 36.67° C | 43% | 1014 hPa | 0 mm | - | 525 W/m² | - |
* Rain latest hour (hover to see other rain measurements)
** Current wind speed in m/s (hover to see current wind gust speed)